Le nostre stazioni meteo in Italia

Pubblicità
Il mio iltempo24.it
Capri, Italia (16294): Temperatura & dewpoint: 20.08.2019 12:00:00 - 26.08.2019 12:00:00 (CEST)Capri, Italia (16294): velocità del vento: 20.08.2019 12:00:00 - 26.08.2019 12:00:00 (CEST)Capri, Italia (16294): direzione del vento: 20.08.2019 12:00:00 - 26.08.2019 12:00:00 (CEST)Capri, Italia (16294): reduced air pressure: 20.08.2019 12:00:00 - 26.08.2019 12:00:00 (CEST)Capri, Italia (16294): visibility: 20.08.2019 12:00:00 - 26.08.2019 12:00:00 (CEST)
Data & Tempo tt [°C] td [°C] ff [km/h] ff [kn] dd ppp [hPa] vv [km]
26.08.2019 12:00:00 - - - - - - -
26.08.2019 11:00:00 27,4 22,6 0 0 N 1016,8 10
26.08.2019 10:00:00 27,0 22,0 0 0 N - 10
26.08.2019 09:00:00 27,0 23,0 0 0 N - 10
26.08.2019 08:00:00 24,4 22,1 0 0 N 1016,6 20
26.08.2019 07:00:00 24,0 22,0 0 0 N - 10
26.08.2019 06:00:00 24,0 22,0 0 0 N - 10
26.08.2019 05:00:00 24,2 21,9 0 0 N 1016,6 20
26.08.2019 04:00:00 25,0 23,0 0 0 N - 10
26.08.2019 03:00:00 25,0 21,0 0 0 N - 10
26.08.2019 02:00:00 24,6 21,3 0 0 N 1016,5 20
26.08.2019 01:00:00 25,0 22,0 0 0 N - 10
26.08.2019 00:00:00 25,0 23,0 0 0 N - 10
25.08.2019 23:00:00 25,4 23,3 0 0 N 1016,4 20
25.08.2019 22:00:00 26,0 23,0 0 0 N - 10
25.08.2019 21:00:00 27,0 22,0 0 0 N - 10
25.08.2019 20:00:00 27,4 21,4 5 3 O 1015,4 20
25.08.2019 19:00:00 29,0 21,0 8 4 O - 10
25.08.2019 18:00:00 30,0 21,0 5 3 OSO - 10
25.08.2019 17:00:00 30,2 21,6 9 5 OSO 1015,0 20
25.08.2019 16:00:00 30,0 22,0 8 4 OSO - 10
25.08.2019 15:00:00 30,0 21,0 8 4 OSO - 10
25.08.2019 14:00:00 29,2 20,9 5 3 SO 1016,5 20
25.08.2019 13:00:00 29,0 21,0 4 2 O - 10
25.08.2019 12:00:00 29,0 21,0 0 0 N - 10
25.08.2019 11:00:00 28,6 20,9 0 0 N 1016,7 20
25.08.2019 10:00:00 27,0 21,0 4 2 NNO - 10
25.08.2019 09:00:00 27,0 21,0 0 0 N - 10
25.08.2019 08:00:00 25,4 21,7 0 0 N 1015,7 20
25.08.2019 07:00:00 25,0 22,0 0 0 N - 10
25.08.2019 06:00:00 25,0 21,0 0 0 N - 10
25.08.2019 05:00:00 25,0 20,3 0 0 N 1015,7 20
25.08.2019 04:00:00 25,0 22,0 0 0 N - 10
25.08.2019 03:00:00 26,0 23,0 0 0 N - 10
25.08.2019 02:00:00 25,6 21,5 11 6 NE 1016,3 20
25.08.2019 01:00:00 25,0 21,0 9 5 O - 10
25.08.2019 00:00:00 26,0 22,0 0 0 N - 10
24.08.2019 23:00:00 26,0 24,0 0 0 N 1016,4 20
24.08.2019 22:00:00 27,0 24,0 0 0 N - 10
24.08.2019 21:00:00 27,0 24,0 0 0 N - 10
24.08.2019 20:00:00 27,4 22,8 0 0 N 1016,1 20
24.08.2019 19:00:00 28,0 23,0 0 0 N - 10
24.08.2019 18:00:00 29,0 26,0 9 5 OSO - 10
24.08.2019 17:00:00 29,2 22,0 11 6 O 1015,5 20
24.08.2019 16:00:00 32,0 13,0 5 3 O - 10
24.08.2019 15:00:00 32,0 16,0 11 6 O - 10
24.08.2019 14:00:00 31,8 16,5 0 0 N 1017,0 20
24.08.2019 13:00:00 30,0 18,0 9 5 NE - 10
24.08.2019 12:00:00 29,0 18,0 0 0 N - 10
24.08.2019 11:00:00 29,0 17,5 0 0 N 1017,3 20
24.08.2019 10:00:00 28,0 20,0 5 3 NE - 10
24.08.2019 09:00:00 27,0 22,0 0 0 N - 10
24.08.2019 08:00:00 26,2 21,4 0 0 N 1017,0 20
24.08.2019 07:00:00 25,0 21,0 5 3 NE - 10
24.08.2019 06:00:00 25,0 21,0 0 0 N - 10
24.08.2019 05:00:00 25,4 21,1 0 0 N 1016,9 20
24.08.2019 04:00:00 25,0 22,0 0 0 N - 10
24.08.2019 03:00:00 26,0 22,0 0 0 N - 10
24.08.2019 02:00:00 26,0 22,7 0 0 N 1016,9 20
24.08.2019 01:00:00 26,0 23,0 0 0 N - 10
24.08.2019 00:00:00 26,0 22,0 0 0 N - 10
23.08.2019 23:00:00 26,4 19,0 0 0 N 1018,3 20
23.08.2019 22:00:00 27,0 21,0 0 0 N - 10
23.08.2019 21:00:00 27,0 22,0 5 3 NE - 10
23.08.2019 20:00:00 27,2 22,8 5 3 ENE 1017,3 20
23.08.2019 19:00:00 28,0 24,0 4 2 O - 10
23.08.2019 18:00:00 29,0 24,0 4 2 OSO - 10
23.08.2019 17:00:00 30,4 22,3 16 9 O 1016,6 10
23.08.2019 16:00:00 30,0 24,0 11 6 SO - 10
23.08.2019 15:00:00 30,0 21,0 5 3 ESE - 10
23.08.2019 14:00:00 32,8 15,3 5 3 NNO 1017,4 20
23.08.2019 13:00:00 31,0 17,0 4 2 E - 10
23.08.2019 12:00:00 31,0 18,0 0 0 N - 10
23.08.2019 11:00:00 29,8 17,6 4 2 ONO 1017,9 20
23.08.2019 10:00:00 28,0 22,0 0 0 N - 10
23.08.2019 09:00:00 27,0 20,0 0 0 N - 10
23.08.2019 08:00:00 26,6 21,4 0 0 N 1017,4 10
23.08.2019 07:00:00 26,0 23,0 9 5 ENE - 10
23.08.2019 06:00:00 25,0 23,0 11 6 ENE - 10
23.08.2019 05:00:00 26,0 23,5 4 2 ENE 1017,8 20
23.08.2019 04:00:00 26,0 23,0 0 0 N - 10
23.08.2019 03:00:00 26,0 24,0 0 0 N - 10
23.08.2019 02:00:00 26,0 23,9 0 0 N 1017,8 20
23.08.2019 01:00:00 26,0 22,0 4 2 ENE - 10
23.08.2019 00:00:00 26,0 21,0 4 2 ENE - 10
22.08.2019 23:00:00 26,0 23,9 0 0 N 1017,4 20
22.08.2019 22:00:00 26,0 24,0 2 1 ENE - 10
22.08.2019 21:00:00 26,0 24,0 2 1 E - 10
22.08.2019 20:00:00 26,6 23,7 4 2 N 1017,4 10
22.08.2019 19:00:00 28,0 23,0 4 2 O - 10
22.08.2019 18:00:00 29,0 22,0 5 3 O - 10
22.08.2019 17:00:00 29,4 22,6 8 4 O 1017,3 10
22.08.2019 16:00:00 30,0 23,0 9 5 OSO - 10
22.08.2019 15:00:00 30,0 23,0 8 4 OSO - 10
22.08.2019 14:00:00 29,0 22,5 4 2 OSO 1018,5 10
22.08.2019 13:00:00 29,0 22,0 2 1 N - 10
22.08.2019 12:00:00 28,0 24,0 4 2 NO - 10
22.08.2019 11:00:00 28,0 23,6 2 1 NE 1018,4 10
22.08.2019 10:00:00 27,0 24,0 2 1 ENE - 10
22.08.2019 09:00:00 25,0 24,0 0 0 N - 10
22.08.2019 08:00:00 25,0 23,6 0 0 N 1017,6 10
22.08.2019 07:00:00 24,0 22,0 0 0 N - 10
22.08.2019 06:00:00 24,0 23,0 0 0 N - 10
22.08.2019 05:00:00 24,2 22,5 0 0 N 1017,6 10
22.08.2019 04:00:00 25,0 23,0 0 0 N - 10
22.08.2019 03:00:00 - - - - - - -
22.08.2019 02:00:00 25,0 22,3 0 0 N 1018,3 10
22.08.2019 01:00:00 25,0 23,0 0 0 N - 10
22.08.2019 00:00:00 25,0 23,0 0 0 N - 10
21.08.2019 23:00:00 25,2 21,7 0 0 N 1017,7 10
21.08.2019 22:00:00 26,0 22,0 0 0 N - 10
21.08.2019 21:00:00 26,0 21,0 0 0 N - 10
21.08.2019 20:00:00 27,8 21,1 0 0 N 1016,3 20
21.08.2019 19:00:00 28,0 21,0 5 3 OSO - 10
21.08.2019 18:00:00 29,0 23,0 8 4 OSO - 10
21.08.2019 17:00:00 29,8 22,8 11 6 OSO 1017,4 20
21.08.2019 16:00:00 29,0 22,0 11 6 OSO - 10
21.08.2019 15:00:00 29,0 22,0 8 4 OSO - 10
21.08.2019 14:00:00 28,4 23,3 5 3 OSO 1018,2 20
21.08.2019 13:00:00 28,0 23,0 11 6 OSO - 10
21.08.2019 12:00:00 28,0 23,0 8 4 OSO - 10
21.08.2019 11:00:00 26,8 23,5 0 0 N 1018,5 20
21.08.2019 10:00:00 27,0 24,0 0 0 N - 10
21.08.2019 09:00:00 26,0 24,0 0 0 N - 10
21.08.2019 08:00:00 25,0 23,8 0 0 N 1018,2 20
21.08.2019 07:00:00 24,0 23,0 0 0 N - 10
21.08.2019 06:00:00 24,0 21,0 0 0 N - 10
21.08.2019 05:00:00 24,2 21,3 0 0 N 1017,8 20
21.08.2019 04:00:00 25,0 22,0 0 0 N - 10
21.08.2019 03:00:00 25,0 22,0 5 3 NE - 10
21.08.2019 02:00:00 25,0 21,9 5 3 NE 1017,8 20
21.08.2019 01:00:00 25,0 23,0 5 3 NE - 10
21.08.2019 00:00:00 25,0 23,0 5 3 NE - 10
20.08.2019 23:00:00 25,6 23,7 0 0 N 1017,7 20
20.08.2019 22:00:00 26,0 24,0 0 0 N - 10
20.08.2019 21:00:00 27,0 23,0 0 0 N - 10
20.08.2019 20:00:00 28,0 23,4 0 0 N 1017,3 20
20.08.2019 19:00:00 29,0 23,0 4 2 O - 10
20.08.2019 18:00:00 30,0 23,0 4 2 OSO - 10
20.08.2019 17:00:00 29,8 22,5 11 6 OSO 1017,4 20
20.08.2019 16:00:00 30,0 23,0 13 7 OSO - 10
20.08.2019 15:00:00 31,0 18,0 0 0 N - 10
20.08.2019 14:00:00 30,0 19,1 0 0 N 1017,5 20
20.08.2019 13:00:00 29,0 20,0 8 4 O - 10
20.08.2019 12:00:00 29,0 20,0 0 0 N - 10

tt = Temperatura
td = dewpoint
ff = velocità del vento
dd = direzione del vento
ppp = reduced air pressure
vv = visibility

Stazioni seguenti

WeatherPro
AMSI
MeteoEarth